McCook, NE

5:52 AM CDT on May 29, 2017 (GMT -0500)
McCook Municipal

Weather History for KMCK - October, 2012

Change the Weather History Date:

Saturday, October 13, 2012

  Actual Average Record
Temperature  
Mean Temperature 61 °F 52 °F  
Max Temperature 78 °F 68 °F 91 °F (1950)
Min Temperature 43 °F 37 °F 22 °F (1986)
Degree Days  
Heating Degree Days 4    
Growing Degree Days 10 (Base 50)    
Moisture  
Dew Point 41 °F    
Average Humidity 63    
Maximum Humidity 97    
Minimum Humidity 19    
Precipitation  
Precipitation T in 0.06 in 0.47 in (1960)
Month to date precipitation 0.32 0.76  
Year to date precipitation 7.91 19.91  
Sea Level Pressure  
Sea Level Pressure 29.76 in    
Wind  
Wind Speed 8 mph (WSW)    
Max Wind Speed 26 mph    
Max Gust Speed 28 mph    
Visibility 8 miles    
Events Fog , Thunderstorm    
T = Trace of Precipitation, MM = Missing Value Source: NWS Daily Summary

Daily Weather History Graph

Daily Weather History Graph

Search for Another Location

Airport or City:

Trip Planner

Search our weather history database for the weather conditions in past years. The results will help you decide how hot, cold, wet, or windy it might be!

Date:

Astronomy

Oct. 13, 2012 Rise Set
Actual Time 7:51 AM CDT 7:04 PM CDT
Civil Twilight 7:24 AM CDT 7:32 PM CDT
Nautical Twilight 6:52 AM CDT 8:03 PM CDT
Astronomical Twilight 6:21 AM CDT 8:34 PM CDT
Moon 5:43 AM CDT (10/13) 5:49 PM CDT (10/13)
Length of Visible Light 12h 07m
Length of Day
11h 13m
Waning Crescent, 5% of the Moon is Illuminated
Oct 13
Waning Crescent
Oct 15
New
Oct 21
First Quarter
Oct 29
Full
Nov 6
Last Quarter

Hourly Weather History & Observations

Time (CDT) Temp. Windchill Dew Point Humidity Pressure Visibility Wind Dir Wind Speed Gust Speed Precip Events Conditions
12:19 AM 50.0 °F - 41.0 °F 71% 29.88 in 10.0 mi SE 6.9 mph - N/A   Scattered Clouds
12:53 AM 48.9 °F - 42.1 °F 77% 29.92 in 10.0 mi SE 9.2 mph - N/A   Partly Cloudy
1:09 AM 50.0 °F - 42.8 °F 76% 29.87 in 10.0 mi SE 9.2 mph - N/A   Mostly Cloudy
1:53 AM 48.9 °F - 43.0 °F 80% 29.88 in 10.0 mi SE 5.8 mph - N/A   Mostly Cloudy
2:01 AM 48.2 °F - 42.8 °F 82% 29.85 in 10.0 mi SE 9.2 mph - N/A   Scattered Clouds
2:53 AM 46.0 °F 43.1 °F 42.1 °F 86% 29.84 in 9.0 mi SE 5.8 mph - N/A   Clear
3:53 AM 44.1 °F 42.5 °F 41.0 °F 89% 29.83 in 7.0 mi ESE 3.5 mph - N/A   Clear
4:26 AM 48.2 °F - 44.6 °F 87% 29.80 in 7.0 mi South 6.9 mph - N/A   Mostly Cloudy
4:34 AM 48.2 °F - 46.4 °F 93% 29.80 in 7.0 mi South 6.9 mph - N/A   Mostly Cloudy
4:53 AM 50.0 °F - 46.9 °F 89% 29.79 in 8.0 mi South 5.8 mph - N/A   Overcast
5:30 AM 48.2 °F - 46.4 °F 93% 29.79 in 6.0 mi South 3.5 mph - N/A   Scattered Clouds
5:53 AM 48.9 °F - 48.0 °F 97% 29.79 in 6.0 mi South 3.5 mph - N/A   Clear
6:53 AM 46.0 °F 43.1 °F 45.0 °F 96% 29.78 in 4.0 mi SW 5.8 mph - N/A   Clear
7:16 AM 46.4 °F - 44.6 °F 93% 29.78 in 1.8 mi Calm Calm - N/A   Clear
7:25 AM 46.4 °F 45.2 °F 44.6 °F 93% 29.78 in 0.2 mi WSW 3.5 mph - N/A Fog Fog
7:51 AM 46.4 °F 41.9 °F 44.6 °F 93% 29.77 in 2.0 mi WSW 9.2 mph - N/A   Clear
7:53 AM 46.0 °F 41.4 °F 45.0 °F 96% 29.78 in 4.0 mi WSW 9.2 mph - N/A   Clear
8:53 AM 48.0 °F - 46.9 °F 96% 29.80 in 5.0 mi Calm Calm - N/A   Clear
9:53 AM 53.1 °F - 46.9 °F 80% 29.78 in 10.0 mi WSW 9.2 mph - N/A   Clear
10:53 AM 60.1 °F - 45.0 °F 57% 29.75 in 10.0 mi WNW 6.9 mph - N/A   Clear
11:53 AM 66.9 °F - 41.0 °F 39% 29.71 in 10.0 mi WNW 12.7 mph - N/A   Clear
12:53 PM 72.0 °F - 41.0 °F 33% 29.68 in 10.0 mi NW 12.7 mph 18.4 mph N/A   Clear
1:53 PM 73.9 °F - 39.0 °F 28% 29.65 in 10.0 mi West 5.8 mph - N/A   Clear
2:53 PM 77.0 °F - 37.4 °F 24% 29.66 in 10.0 mi WNW 11.5 mph 17.3 mph N/A   Clear
3:53 PM 77.0 °F - 32.0 °F 19% 29.61 in 8.0 mi WNW 6.9 mph - N/A   Clear
4:53 PM 77.0 °F - 32.0 °F 19% 29.60 in 10.0 mi Variable 6.9 mph - N/A   Scattered Clouds
5:53 PM 75.0 °F - 33.1 °F 22% 29.59 in 10.0 mi West 5.8 mph - N/A   Clear
6:53 PM 68.0 °F - 33.8 °F 28% 29.64 in 10.0 mi West 4.6 mph - N/A   Mostly Cloudy
7:36 PM 66.2 °F - 35.6 °F 32% 29.65 in 10.0 mi NW 3.5 mph - N/A Thunderstorm Mostly Cloudy
7:53 PM 62.1 °F - 37.9 °F 41% 29.65 in 10.0 mi West 6.9 mph - N/A Thunderstorm Scattered Clouds
8:24 PM 64.4 °F - 44.6 °F 49% 29.69 in 10.0 mi NNW 15.0 mph - 0.00 in   Overcast
8:53 PM 64.4 °F - 39.2 °F 40% 29.71 in 10.0 mi North 26.5 mph - N/A   Clear
9:53 PM 63.0 °F - 35.1 °F 35% 29.74 in 10.0 mi North 20.7 mph 26.5 mph N/A   Clear
10:53 PM 63.0 °F - 35.1 °F 35% 29.77 in 10.0 mi North 18.4 mph - N/A   Partly Cloudy
11:53 PM 64.4 °F - 33.8 °F 32% 29.84 in 10.0 mi NNW 20.7 mph 27.6 mph N/A   Mostly Cloudy